Tracking 21076 objects as of 9-Aug-2020
HD Live streaming from Space Station
objects crossing your sky now
Track the most recent launched group of Starlink satellites

CZ-2C R/B

Track CZ-2C R/B now!
10-day predictions


NORAD ID: 37731
Int'l Code: 2011-030B
Perigee: 610.7 km
Apogee: 696.2 km
Inclination: 97.6 °
Period: 97.7 minutes
Semi major axis: 7024 km
RCS: 8.527 m2 (large)
Launch date: July 6, 2011
Source: People's Republic of China (PRC)
Launch site: Jiuquan Satellite Launch Center, China (JSC)

Note: This is a ROCKET BODY
aabbcc
Your satellite tracking list
Your tracking list is empty




NASA's NSSDC Master Catalog

Two Line Element Set (TLE):
1 37731U 11030B   20221.78936919 +.00000022 +00000-0 +10356-4 0  9998
2 37731 097.6485 234.3603 0060849 122.1377 050.2917 14.74621237489173
Source of the keplerian elements: AFSPC